sat.trackr.live / text

‹ back to catalog

STARLINK-36649

NORAD 67837 · 2026-033S

PAYLOAD ACTIVE UNKNOWN

§ Identity

Operator
Country
US
Launch date
2026-02-16
Launch site
AFETR
Launch vehicle
Mass (kg)
RCS (m²)

Purposes: comms

External: N2YO · Heavens-Above · Gunter

§ Orbital elements

Epoch: 2026-09-19T06:06:58.803264Z

Period
94.27 min
Inclination
43.0004°
Eccentricity
0.0001604
Mean motion
15.27566602 rev/d
Perigee alt
482.0 km
Apogee alt
484.2 km
Semi-major
6,861.2 km
B*
4.8902e-4
RAAN
254.2165°
Arg perigee
281.3687°
Mean anomaly
78.6985°
Rev number
3,427

§ Raw data

STARLINK-366491 67837U 26033S   26262.25484726  .00013213  00000+0  48902-3 0  99962 67837  43.0004 254.2165 0001604 281.3687  78.6985 15.27566602 34274

JSON: /api/v1/satellites/67837 · /tle

For live sub-satellite position, see the globe view (requires WebGL).

§ Visibility from observer

Set your observer location to see the next 7 days of passes ≥ 10°. The values pass through the URL so the page stays shareable.

No JS? Fill the form by hand. The geolocation button needs JavaScript.